SCP
0 0 0 0 0 0 0 0 0 0 0 0 -0 -0 0 0 0 0 0 0 0 0 0 0 0 0 0 0 0 0 0 0 0 0 0 0 0 0 0 0 0 0 0
0 0 0 0 0 0 0 0 0 0 0 0 0 0 0 -0 -0 -0 -0 -0 0 0 0 0 0 0 0 0 0 0 0 0 0 0 0 0 0 0 0 0 0 0 0
0 0 0 0 0 0 0 0 0 0 0 0 0 0 0 0 -0 -0 -0 -0 -0 -0 -0 0 0 0 0 0 0 0 0 0 0 0 0 0 0 0 0 0 0 0 0
0 0 0 0 0 0 0 0 0 0 0 0 -0 -0 -0 -0 -0 -0 -0 -0 -0 0 0 0 0 0 0 0 0 0 0 0 0 0 0 0 0 0 0 0 0 0 0
0 0 0 0 0 0 0 0 0 0 0 0 0 -0 -0 -0 -0 -0 -0 0 0 0 0 0 0 0 0 0 0 0 0 0 0 0 0 0 0 0 0 0 0 0 0
0 0 0 0 0 0 0 0 0 0 0 0 -0 -0 -0 0 0 0 0 0 0 0 0 0 0 0 0 0 0 0 0 0 0 0 0 0 0 0 0 0 0 0 0
0 0 0 0 0 0 0 0 0 0 0 0 0 0 0 0 0 0 0 0 0 0 0 0 0 0 0 0 0 0 0 0 0 0 0 0 0 0 0 0 0 0 0
0 0 0 0 0 0 0 0 0 0 0 0 0 0 0 0 0 -0 0 0 0 0 0 0 0 0 0 0 0 0 0 0 0 0 0 0 0 0 0 0 0 0 0
0 0 0 0 0 0 0 0 0 0 0 0 0 0 0 0 -0 0 0 0 0 0 0 0 0 0 0 0 0 0 0 0 0 0 0 0 0 0 0 0 0 0 0
0 0 0 0 0 0 0 0 0 0 0 0 0 0 0 0 -0 0 0 0 0 0 0 0 0 0 0 0 0 0 0 0 0 0 0 0 0 0 0 0 0 0 0
0 0 0 0 0 0 0 0 0 0 0 0 0 0 0 0 0 0 0 0 0 0 0 0 0 0 0 0 0 0 0 0 0 0 0 0 0 0 0 0 0 0 0
0 0 0 0 0 0 0 0 0 0 0 0 0 0 0 0 0 0 -0 -0 0 0 0 0 0 0 0 0 0 0 0 0 0 0 0 0 0 0 0 0 0 0 0
0 0 0 0 0 0 0 0 0 0 0 0 0 0 0 0 0 0 0 0 0 0 0 0 0 0 0 0 0 0 0 0 0 0 0 0 0 0 0 0 0 0 0
0 0 0 0 0 0 0 0 0 0 0 0 0 0 0 0 0 0 0 0 0 0 0 0 0 0 0 0 0 0 0 0 0 0 0 0 0 0 0 0 0 0 0
0 0 0 0 0 0 0 0 0 0 0 0 0 -0 -0 -0 -0 -0 -0 0 0 0 0 0 0 0 0 0 0 0 0 0 0 0 0 0 0 0 0 0 0 0 0
0 0 0 0 0 0 0 0 0 0 0 -0 -0 -0 0 -0 -0 -0 -0 -0 -0 0 0 0 0 0 0 0 0 0 0 0 0 0 0 0 0 0 0 -0 0 0 0
0 0 0 0 0 0 0 0 0 0 0 0 0 0 0 0 0 0 0 0 0 0 0 0 0 0 0 0 0 0 0 0 0 0 0 0 0 0 0 0 0 0 0
0 0 0 0 0 0 0 0 0 0 -0 0 0 0 0 0 0 0 0 0 0 0 0 0 0 0 0 0 0 0 0 0 0 0 0 0 0 0 0 0 0 0 0
0 0 0 0 0 0 0 0 0 0 -0 0 0 0 0 0 0 0 0 0 0 0 0 0 0 0 0 0 0 0 0 0 0 0 0 0 0 0 0 0 0 0 0
0 0 0 0 0 0 0 0 0 0 0 0 0 0 0 0 0 0 0 0 0 0 0 0 0 0 0 0 0 0 0 0 0 0 0 -0 -0 -0 0 0 0 0 0
0 0 0 0 0 0 0 0 0 0 0 0 0 0 -0 0 0 0 0 0 0 0 0 0 0 0 0 0 0 0 0 0 0 0 0 0 0 0 0 0 0 0 0
0 0 0 0 0 0 0 0 -0 0 0 0 0 0 0 0 0 0 0 0 0 0 0 0 0 0 0 0 0 0 0 0 0 0 0 0 0 0 0 0 0 0 0
0 0 0 0 0 0 0 -0 0 0 0 0 0 0 0 0 0 0 0 0 0 0 0 0 0 0 0 0 0 0 0 0 0 0 0 0 0 0 0 0 0 0 0
0 0 0 0 0 -0 -0 -0 -0 0 0 0 0 0 0 0 0 0 0 0 0 0 0 0 0 0 0 0 0 0 0 0 0 0 0 0 0 0 0 0 0 0 0
0 0 0 0 -0 -0 -0 -0 -0 0 0 0 0 0 0 0 0 0 0 0 0 0 0 0 0 0 -0 0 0 0 0 0 0 0 0 0 0 0 0 0 0 0 0
0 0 0 0 -0 -0 -0 -0 -0 -0 -0 0 0 0 0 0 0 0 0 0 0 0 0 0 0 0 -0 0 0 0 -0 0 0 0 0 0 0 0 0 0 0 0 0
Wind_Speed_500mb
10 15 18 22 26 29 32 35 40 44 48 53 56 59 61 63 65 65 63 61 62 60 57 57 58 53 56 54 53 52 55 62 83 97 95 93 91 85 85 90 87 81 79
10 16 21 25 29 33 36 40 44 45 47 52 57 61 66 70 73 77 80 77 75 75 71 70 70 67 66 65 63 62 62 60 69 84 83 87 90 85 83 80 87 97 95
17 22 26 31 35 38 43 46 47 51 55 61 69 75 79 79 80 82 87 89 87 85 85 85 85 79 78 76 74 73 73 72 72 78 84 81 86 83 81 80 82 85 97
22 27 31 37 43 48 54 55 58 63 70 75 81 86 90 91 91 91 92 93 92 93 95 96 94 92 90 85 82 80 78 80 82 83 87 87 85 84 81 82 84 84 88
28 31 38 44 50 55 58 60 67 74 79 84 88 91 93 94 93 91 89 91 96 102 103 102 102 101 99 92 85 89 85 86 87 88 96 94 94 88 87 79 83 81 89
39 42 47 53 56 60 61 68 74 78 83 87 89 91 91 91 92 93 92 93 95 99 107 110 110 108 107 101 81 69 67 72 80 81 94 99 101 89 84 82 81 77 89
47 49 52 57 61 59 67 74 77 81 86 86 85 87 92 94 93 93 92 91 96 97 97 98 101 102 98 94 90 79 82 84 78 83 92 92 93 98 82 81 84 82 89
49 51 56 59 58 65 71 73 78 82 84 85 87 88 91 93 93 89 81 80 86 87 86 85 85 90 90 81 81 86 96 107 108 96 92 113 109 102 88 93 89 91 90
53 56 58 56 61 68 71 75 79 82 82 83 86 89 89 90 84 80 74 72 74 74 71 66 63 65 63 59 66 77 87 97 93 90 92 99 97 95 87 79 85 85 91
55 55 54 57 66 70 73 77 76 78 81 84 85 82 80 82 74 68 59 60 68 70 70 69 66 60 57 55 61 70 83 86 77 74 80 84 93 98 96 93 95 88 86
53 52 53 59 65 67 70 72 76 78 81 82 82 78 73 70 69 61 54 57 66 73 77 73 73 65 61 60 60 69 77 76 80 85 98 97 87 90 98 97 106 100 92
52 53 55 58 60 63 67 68 71 72 77 78 79 78 71 68 65 67 56 57 61 70 76 77 82 72 65 65 69 77 78 79 84 82 82 91 82 87 89 97 98 101 107
55 55 56 56 57 58 63 64 68 66 71 74 73 74 78 72 74 77 69 60 61 70 78 77 74 75 73 75 77 74 71 77 82 90 96 102 110 107 98 88 98 93 92
56 58 56 57 57 56 59 59 63 62 67 69 72 80 82 81 75 77 72 83 84 83 87 87 89 79 82 79 83 80 82 86 88 90 94 97 92 89 105 84 88 84 91
56 57 57 57 56 57 58 55 57 57 58 60 64 67 70 73 73 66 69 73 75 75 78 83 81 73 71 70 74 78 81 86 91 86 84 86 89 87 93 102 90 89 82
56 56 55 55 54 55 59 59 44 50 49 49 44 43 52 55 58 61 62 64 65 63 64 66 65 66 70 76 78 79 75 77 82 85 82 82 84 92 93 97 82 85 78
56 55 56 54 54 55 55 56 62 40 39 45 42 47 43 47 53 57 57 54 58 54 49 50 53 57 63 64 63 60 67 74 76 76 73 77 79 76 65 79 57 63 68
54 55 55 52 52 51 51 50 48 49 46 42 38 47 45 48 48 51 49 51 46 43 45 50 53 57 59 63 62 64 67 66 66 67 61 60 63 63 53 48 54 65 75
54 52 51 50 49 50 48 45 43 41 41 41 42 37 42 46 51 48 49 52 55 54 53 52 52 54 55 57 59 60 60 69 65 54 48 54 55 48 46 43 44 63 66
53 51 48 47 45 45 42 40 38 37 38 38 39 44 46 51 50 53 52 53 55 57 57 56 54 53 53 54 56 57 57 56 46 37 41 53 60 60 54 54 45 51 54
51 47 45 44 42 40 37 36 36 36 37 35 35 37 36 40 43 46 49 50 52 54 56 58 58 57 57 56 55 54 52 46 41 39 36 38 51 58 58 50 51 43 43
48 44 41 39 37 34 32 34 34 34 33 34 32 30 32 34 37 41 43 45 47 48 50 52 54 56 57 55 54 54 51 45 41 34 28 24 23 28 36 40 39 44 47
43 40 37 35 34 32 30 30 31 32 32 32 34 33 33 34 36 39 41 42 44 45 47 48 51 53 53 54 55 54 49 44 40 35 29 26 21 15 13 14 19 24 30
39 38 37 36 34 32 31 30 31 32 32 33 33 33 35 36 37 38 40 40 40 41 43 45 46 48 50 50 52 56 53 41 33 28 25 22 19 15 11 6 5 9 15
36 36 36 35 35 33 33 33 34 35 35 37 38 38 37 38 39 39 40 41 41 41 40 41 43 45 45 46 46 50 55 48 35 27 24 21 17 14 12 8 4 5 10
34 35 35 34 33 32 33 33 33 34 34 35 36 37 37 37 38 39 40 40 40 39 38 38 38 39 39 39 42 44 46 48 43 37 29 24 21 20 16 15 13 13 13
Wind_Direction_500mb
1 358 354 346 347 344 339 335 332 331 331 329 327 325 324 321 318 315 312 311 310 309 307 303 299 301 299 298 296 292 284 277 274 280 281 282 280 278 273 268 264 259 259
337 333 329 327 326 325 325 325 324 324 324 321 320 318 317 314 312 310 308 307 305 302 299 296 295 295 293 292 293 293 291 289 286 284 285 285 283 282 279 273 266 261 258
311 316 319 322 322 320 320 320 321 321 320 318 318 316 313 310 307 304 303 303 301 299 296 294 291 288 286 287 288 287 288 288 286 288 290 288 285 284 282 277 272 265 260
299 306 310 315 316 318 319 320 320 319 318 316 314 312 310 309 307 305 304 303 299 295 293 291 290 289 288 285 282 279 280 283 284 283 286 287 287 287 283 280 277 270 265
278 290 298 303 307 310 312 313 314 314 313 312 310 308 308 309 310 310 306 302 299 297 294 290 288 287 285 286 286 284 282 279 277 280 281 283 283 282 283 287 282 282 277
273 287 292 296 300 304 306 309 310 310 310 310 310 309 309 308 306 304 302 299 294 291 289 289 289 289 288 288 285 280 276 278 278 276 275 275 276 278 281 281 283 280 277
265 277 283 290 295 299 304 308 310 310 311 311 311 310 310 309 308 305 302 297 293 288 283 280 281 281 283 285 285 282 277 271 268 269 269 268 274 272 275 276 276 274 274
263 271 282 289 293 300 305 308 310 312 313 313 312 313 313 313 313 313 308 301 296 293 290 289 286 283 280 282 283 282 281 280 277 272 267 267 265 265 266 269 272 275 274
265 275 283 287 296 304 309 311 314 314 313 314 315 317 316 317 319 314 310 304 299 298 298 299 297 294 293 291 287 284 284 282 284 275 268 267 265 266 261 258 259 255 256
269 278 284 293 304 309 311 313 315 314 316 317 317 318 319 321 319 314 309 306 302 302 301 302 303 298 298 294 287 285 282 281 285 288 289 284 268 261 256 253 250 247 248
272 279 284 296 304 307 311 315 316 316 316 317 317 321 325 322 318 318 311 304 302 304 305 302 297 298 295 292 288 285 285 293 291 283 278 276 276 275 265 256 250 243 243
275 279 286 297 304 309 313 314 312 315 316 318 320 323 323 321 322 329 312 305 302 297 296 299 306 303 296 293 290 288 286 287 284 284 282 276 274 268 269 260 254 252 251
281 282 291 300 306 311 312 312 312 318 318 320 322 322 322 325 328 330 322 311 308 303 301 300 299 296 294 291 286 289 287 286 285 281 278 275 275 270 265 270 251 255 256
281 287 296 301 306 311 312 314 316 320 319 321 325 327 326 324 317 316 324 322 318 312 309 310 310 303 297 289 292 291 289 289 288 281 274 273 275 271 263 255 255 248 245
281 289 297 301 307 310 312 316 318 321 322 322 315 314 314 313 316 317 313 311 310 309 307 302 300 299 302 298 295 294 292 290 287 284 272 273 274 272 270 247 246 234 237
283 292 297 302 307 310 311 312 314 316 321 322 314 312 312 312 316 316 315 314 312 311 304 301 304 305 305 306 302 296 288 282 280 277 272 273 274 277 272 249 239 222 225
286 292 297 302 306 308 309 311 314 314 321 329 339 336 330 324 325 327 321 319 311 319 318 316 319 322 323 323 318 313 311 301 290 279 275 276 280 287 267 260 233 223 238
288 292 295 298 301 303 305 308 313 318 326 328 337 340 343 340 340 339 338 334 331 335 338 334 333 332 332 333 331 330 324 312 299 281 277 282 296 298 263 262 256 244 245
287 289 291 293 296 298 303 306 308 311 318 327 332 333 337 347 353 347 353 357 356 353 349 345 343 340 339 340 336 334 330 327 309 300 281 279 288 292 301 281 282 257 244
285 287 289 290 291 294 299 302 304 307 315 324 333 334 339 349 346 350 359 0 1 360 358 354 351 348 346 347 346 344 341 342 336 313 291 280 281 288 286 284 282 256 241
284 285 285 285 287 289 296 300 302 307 313 323 330 333 343 336 344 350 356 1 1 1 2 3 2 359 355 351 349 348 348 348 353 340 326 297 284 284 288 286 276 265 259
281 280 278 279 280 286 294 297 301 305 310 319 324 333 338 338 345 349 353 357 359 359 0 1 3 5 4 1 356 350 348 349 351 351 344 332 318 300 290 282 273 259 246
276 273 272 275 278 283 289 294 299 302 307 312 318 326 332 338 342 345 349 351 354 356 358 360 1 3 5 7 10 3 351 351 350 348 349 352 350 347 336 310 287 262 243
269 269 271 272 273 277 283 288 293 297 303 308 312 318 324 329 333 336 338 341 346 350 353 356 359 2 4 5 10 11 4 355 353 356 358 1 2 4 1 342 273 239 224
269 271 271 272 273 277 281 286 288 292 296 300 305 309 314 318 322 326 329 332 336 340 345 349 352 357 2 4 12 13 12 10 8 14 20 22 25 33 39 50 86 159 185
272 273 273 274 276 280 284 288 290 293 296 300 304 307 313 319 323 326 328 331 334 338 340 344 348 350 354 1 7 16 16 14 21 27 32 40 48 59 67 81 96 117 136
Wind_Speed_850mb
10 15 18 22 26 29 32 35 40 44 48 53 56 59 61 63 65 65 63 61 62 60 57 57 58 53 56 54 53 52 55 62 83 97 95 93 91 85 85 90 87 81 79
10 16 21 25 29 33 36 40 44 45 47 52 57 61 66 70 73 77 80 77 75 75 71 70 70 67 66 65 63 62 62 60 69 84 83 87 90 85 83 80 87 97 95
17 22 26 31 35 38 43 46 47 51 55 61 69 75 79 79 80 82 87 89 87 85 85 85 85 79 78 76 74 73 73 72 72 78 84 81 86 83 81 80 82 85 97
22 27 31 37 43 48 54 55 58 63 70 75 81 86 90 91 91 91 92 93 92 93 95 96 94 92 90 85 82 80 78 80 82 83 87 87 85 84 81 82 84 84 88
28 31 38 44 50 55 58 60 67 74 79 84 88 91 93 94 93 91 89 91 96 102 103 102 102 101 99 92 85 89 85 86 87 88 96 94 94 88 87 79 83 81 89
39 42 47 53 56 60 61 68 74 78 83 87 89 91 91 91 92 93 92 93 95 99 107 110 110 108 107 101 81 69 67 72 80 81 94 99 101 89 84 82 81 77 89
47 49 52 57 61 59 67 74 77 81 86 86 85 87 92 94 93 93 92 91 96 97 97 98 101 102 98 94 90 79 82 84 78 83 92 92 93 98 82 81 84 82 89
49 51 56 59 58 65 71 73 78 82 84 85 87 88 91 93 93 89 81 80 86 87 86 85 85 90 90 81 81 86 96 107 108 96 92 113 109 102 88 93 89 91 90
53 56 58 56 61 68 71 75 79 82 82 83 86 89 89 90 84 80 74 72 74 74 71 66 63 65 63 59 66 77 87 97 93 90 92 99 97 95 87 79 85 85 91
55 55 54 57 66 70 73 77 76 78 81 84 85 82 80 82 74 68 59 60 68 70 70 69 66 60 57 55 61 70 83 86 77 74 80 84 93 98 96 93 95 88 86
53 52 53 59 65 67 70 72 76 78 81 82 82 78 73 70 69 61 54 57 66 73 77 73 73 65 61 60 60 69 77 76 80 85 98 97 87 90 98 97 106 100 92
52 53 55 58 60 63 67 68 71 72 77 78 79 78 71 68 65 67 56 57 61 70 76 77 82 72 65 65 69 77 78 79 84 82 82 91 82 87 89 97 98 101 107
55 55 56 56 57 58 63 64 68 66 71 74 73 74 78 72 74 77 69 60 61 70 78 77 74 75 73 75 77 74 71 77 82 90 96 102 110 107 98 88 98 93 92
56 58 56 57 57 56 59 59 63 62 67 69 72 80 82 81 75 77 72 83 84 83 87 87 89 79 82 79 83 80 82 86 88 90 94 97 92 89 105 84 88 84 91
56 57 57 57 56 57 58 55 57 57 58 60 64 67 70 73 73 66 69 73 75 75 78 83 81 73 71 70 74 78 81 86 91 86 84 86 89 87 93 102 90 89 82
56 56 55 55 54 55 59 59 44 50 49 49 44 43 52 55 58 61 62 64 65 63 64 66 65 66 70 76 78 79 75 77 82 85 82 82 84 92 93 97 82 85 78
56 55 56 54 54 55 55 56 62 40 39 45 42 47 43 47 53 57 57 54 58 54 49 50 53 57 63 64 63 60 67 74 76 76 73 77 79 76 65 79 57 63 68
54 55 55 52 52 51 51 50 48 49 46 42 38 47 45 48 48 51 49 51 46 43 45 50 53 57 59 63 62 64 67 66 66 67 61 60 63 63 53 48 54 65 75
54 52 51 50 49 50 48 45 43 41 41 41 42 37 42 46 51 48 49 52 55 54 53 52 52 54 55 57 59 60 60 69 65 54 48 54 55 48 46 43 44 63 66
53 51 48 47 45 45 42 40 38 37 38 38 39 44 46 51 50 53 52 53 55 57 57 56 54 53 53 54 56 57 57 56 46 37 41 53 60 60 54 54 45 51 54
51 47 45 44 42 40 37 36 36 36 37 35 35 37 36 40 43 46 49 50 52 54 56 58 58 57 57 56 55 54 52 46 41 39 36 38 51 58 58 50 51 43 43
48 44 41 39 37 34 32 34 34 34 33 34 32 30 32 34 37 41 43 45 47 48 50 52 54 56 57 55 54 54 51 45 41 34 28 24 23 28 36 40 39 44 47
43 40 37 35 34 32 30 30 31 32 32 32 34 33 33 34 36 39 41 42 44 45 47 48 51 53 53 54 55 54 49 44 40 35 29 26 21 15 13 14 19 24 30
39 38 37 36 34 32 31 30 31 32 32 33 33 33 35 36 37 38 40 40 40 41 43 45 46 48 50 50 52 56 53 41 33 28 25 22 19 15 11 6 5 9 15
36 36 36 35 35 33 33 33 34 35 35 37 38 38 37 38 39 39 40 41 41 41 40 41 43 45 45 46 46 50 55 48 35 27 24 21 17 14 12 8 4 5 10
34 35 35 34 33 32 33 33 33 34 34 35 36 37 37 37 38 39 40 40 40 39 38 38 38 39 39 39 42 44 46 48 43 37 29 24 21 20 16 15 13 13 13
Wind_Direction_850mb
1 358 354 346 347 344 339 335 332 331 331 329 327 325 324 321 318 315 312 311 310 309 307 303 299 301 299 298 296 292 284 277 274 280 281 282 280 278 273 268 264 259 259
337 333 329 327 326 325 325 325 324 324 324 321 320 318 317 314 312 310 308 307 305 302 299 296 295 295 293 292 293 293 291 289 286 284 285 285 283 282 279 273 266 261 258
311 316 319 322 322 320 320 320 321 321 320 318 318 316 313 310 307 304 303 303 301 299 296 294 291 288 286 287 288 287 288 288 286 288 290 288 285 284 282 277 272 265 260
299 306 310 315 316 318 319 320 320 319 318 316 314 312 310 309 307 305 304 303 299 295 293 291 290 289 288 285 282 279 280 283 284 283 286 287 287 287 283 280 277 270 265
278 290 298 303 307 310 312 313 314 314 313 312 310 308 308 309 310 310 306 302 299 297 294 290 288 287 285 286 286 284 282 279 277 280 281 283 283 282 283 287 282 282 277
273 287 292 296 300 304 306 309 310 310 310 310 310 309 309 308 306 304 302 299 294 291 289 289 289 289 288 288 285 280 276 278 278 276 275 275 276 278 281 281 283 280 277
265 277 283 290 295 299 304 308 310 310 311 311 311 310 310 309 308 305 302 297 293 288 283 280 281 281 283 285 285 282 277 271 268 269 269 268 274 272 275 276 276 274 274
263 271 282 289 293 300 305 308 310 312 313 313 312 313 313 313 313 313 308 301 296 293 290 289 286 283 280 282 283 282 281 280 277 272 267 267 265 265 266 269 272 275 274
265 275 283 287 296 304 309 311 314 314 313 314 315 317 316 317 319 314 310 304 299 298 298 299 297 294 293 291 287 284 284 282 284 275 268 267 265 266 261 258 259 255 256
269 278 284 293 304 309 311 313 315 314 316 317 317 318 319 321 319 314 309 306 302 302 301 302 303 298 298 294 287 285 282 281 285 288 289 284 268 261 256 253 250 247 248
272 279 284 296 304 307 311 315 316 316 316 317 317 321 325 322 318 318 311 304 302 304 305 302 297 298 295 292 288 285 285 293 291 283 278 276 276 275 265 256 250 243 243
275 279 286 297 304 309 313 314 312 315 316 318 320 323 323 321 322 329 312 305 302 297 296 299 306 303 296 293 290 288 286 287 284 284 282 276 274 268 269 260 254 252 251
281 282 291 300 306 311 312 312 312 318 318 320 322 322 322 325 328 330 322 311 308 303 301 300 299 296 294 291 286 289 287 286 285 281 278 275 275 270 265 270 251 255 256
281 287 296 301 306 311 312 314 316 320 319 321 325 327 326 324 317 316 324 322 318 312 309 310 310 303 297 289 292 291 289 289 288 281 274 273 275 271 263 255 255 248 245
281 289 297 301 307 310 312 316 318 321 322 322 315 314 314 313 316 317 313 311 310 309 307 302 300 299 302 298 295 294 292 290 287 284 272 273 274 272 270 247 246 234 237
283 292 297 302 307 310 311 312 314 316 321 322 314 312 312 312 316 316 315 314 312 311 304 301 304 305 305 306 302 296 288 282 280 277 272 273 274 277 272 249 239 222 225
286 292 297 302 306 308 309 311 314 314 321 329 339 336 330 324 325 327 321 319 311 319 318 316 319 322 323 323 318 313 311 301 290 279 275 276 280 287 267 260 233 223 238
288 292 295 298 301 303 305 308 313 318 326 328 337 340 343 340 340 339 338 334 331 335 338 334 333 332 332 333 331 330 324 312 299 281 277 282 296 298 263 262 256 244 245
287 289 291 293 296 298 303 306 308 311 318 327 332 333 337 347 353 347 353 357 356 353 349 345 343 340 339 340 336 334 330 327 309 300 281 279 288 292 301 281 282 257 244
285 287 289 290 291 294 299 302 304 307 315 324 333 334 339 349 346 350 359 0 1 360 358 354 351 348 346 347 346 344 341 342 336 313 291 280 281 288 286 284 282 256 241
284 285 285 285 287 289 296 300 302 307 313 323 330 333 343 336 344 350 356 1 1 1 2 3 2 359 355 351 349 348 348 348 353 340 326 297 284 284 288 286 276 265 259
281 280 278 279 280 286 294 297 301 305 310 319 324 333 338 338 345 349 353 357 359 359 0 1 3 5 4 1 356 350 348 349 351 351 344 332 318 300 290 282 273 259 246
276 273 272 275 278 283 289 294 299 302 307 312 318 326 332 338 342 345 349 351 354 356 358 360 1 3 5 7 10 3 351 351 350 348 349 352 350 347 336 310 287 262 243
269 269 271 272 273 277 283 288 293 297 303 308 312 318 324 329 333 336 338 341 346 350 353 356 359 2 4 5 10 11 4 355 353 356 358 1 2 4 1 342 273 239 224
269 271 271 272 273 277 281 286 288 292 296 300 305 309 314 318 322 326 329 332 336 340 345 349 352 357 2 4 12 13 12 10 8 14 20 22 25 33 39 50 86 159 185
272 273 273 274 276 280 284 288 290 293 296 300 304 307 313 319 323 326 328 331 334 338 340 344 348 350 354 1 7 16 16 14 21 27 32 40 48 59 67 81 96 117 136